Time,TemperatureF,DewpointF,PressureIn,WindDirection,WindDirectionDegrees,WindSpeedMPH,WindSpeedGustMPH,Humidity,HourlyPrecipIn,Conditions,Clouds,dailyrainin,SolarRadiationWatts/m^2,SoftwareType,DateUTC
2013-02-07 00:00:00,18.4,7.9,30.40,ENE,75,0.0,4.0,63,0.00,,---,0.01,0.00,VWS V14.01,2013-02-07 05:00:00,
2013-02-07 00:01:00,18.4,7.9,30.40,ENE,75,0.0,0.0,63,0.00,,---,0.00,0.00,VWS V14.01,2013-02-07 05:01:00,
2013-02-07 00:06:00,18.4,8.3,30.40,WNW,296,0.0,0.0,64,0.00,,---,0.00,0.00,VWS V14.01,2013-02-07 05:06:00,
2013-02-07 00:11:00,18.4,8.3,30.39,SSE,168,0.0,3.0,64,0.00,,---,0.00,0.00,VWS V14.01,2013-02-07 05:11:00,
2013-02-07 00:17:00,18.4,8.3,30.39,WSW,245,4.0,4.0,64,0.00,,---,0.00,0.00,VWS V14.01,2013-02-07 05:17:00,
2013-02-07 00:22:00,18.3,8.2,30.39,WSW,245,0.0,4.0,64,0.00,,---,0.00,0.00,VWS V14.01,2013-02-07 05:22:00,
2013-02-07 00:27:00,18.2,8.4,30.39,West,266,0.0,4.0,65,0.00,,---,0.00,0.00,VWS V14.01,2013-02-07 05:27:00,
2013-02-07 00:30:00,18.1,8.3,30.39,West,266,0.0,4.0,65,0.00,,---,0.00,0.00,VWS V14.01,2013-02-07 05:30:00,
2013-02-07 00:32:00,18.1,8.3,30.39,West,266,0.0,0.0,65,0.00,,---,0.00,0.00,VWS V14.01,2013-02-07 05:32:00,
2013-02-07 00:37:00,17.8,8.4,30.39,West,267,2.0,3.0,66,0.00,,---,0.00,0.00,VWS V14.01,2013-02-07 05:37:00,
2013-02-07 00:41:00,17.6,8.2,30.39,West,267,0.0,3.0,66,0.00,,---,0.00,0.00,VWS V14.01,2013-02-07 05:41:00,
2013-02-07 00:47:00,17.8,8.4,30.38,West,267,0.0,3.0,66,0.00,,---,0.00,0.00,VWS V14.01,2013-02-07 05:47:00,
2013-02-07 00:52:00,17.7,8.3,30.38,West,267,0.0,3.0,66,0.00,,---,0.00,0.00,VWS V14.01,2013-02-07 05:52:00,
2013-02-07 00:57:00,17.6,8.2,30.39,West,267,0.0,3.0,66,0.00,,---,0.00,0.00,VWS V14.01,2013-02-07 05:57:00,
2013-02-07 01:00:00,18.0,9.6,30.39,WNW,282,0.0,3.0,69,0.00,,---,0.00,0.00,VWS V14.01,2013-02-07 06:00:00,
2013-02-07 01:02:00,18.2,8.8,30.39,West,267,0.0,2.0,66,0.00,,---,0.00,0.00,VWS V14.01,2013-02-07 06:02:00,
2013-02-07 01:07:00,18.1,9.3,30.39,West,267,0.0,2.0,68,0.00,,---,0.00,0.00,VWS V14.01,2013-02-07 06:07:00,
2013-02-07 01:12:00,18.0,9.2,30.39,NW,315,0.0,4.0,68,0.00,,---,0.00,0.00,VWS V14.01,2013-02-07 06:12:00,
2013-02-07 01:17:00,17.9,9.1,30.38,NW,315,0.0,4.0,68,0.00,,---,0.00,0.00,VWS V14.01,2013-02-07 06:17:00,
2013-02-07 01:22:00,17.8,9.4,30.38,NW,315,0.0,4.0,69,0.00,,---,0.00,0.00,VWS V14.01,2013-02-07 06:22:00,
2013-02-07 01:27:00,17.8,9.4,30.38,NW,315,0.0,4.0,69,0.00,,---,0.00,0.00,VWS V14.01,2013-02-07 06:27:00,
2013-02-07 01:30:00,17.7,9.6,30.38,NW,315,0.0,4.0,70,0.00,,---,0.00,0.00,VWS V14.01,2013-02-07 06:30:00,
2013-02-07 01:32:00,17.8,9.7,30.38,NW,315,0.0,0.0,70,0.00,,---,0.00,0.00,VWS V14.01,2013-02-07 06:32:00,
2013-02-07 01:37:00,17.8,9.7,30.38,West,265,0.0,3.0,70,0.00,,---,0.00,0.00,VWS V14.01,2013-02-07 06:37:00,
2013-02-07 01:42:00,18.0,9.6,30.38,West,265,0.0,3.0,69,0.00,,---,0.00,0.00,VWS V14.01,2013-02-07 06:42:00,
2013-02-07 01:47:00,18.0,9.6,30.39,West,265,0.0,3.0,69,0.00,,---,0.00,0.00,VWS V14.01,2013-02-07 06:47:00,
2013-02-07 01:52:00,17.9,9.5,30.39,West,265,0.0,3.0,69,0.00,,---,0.00,0.00,VWS V14.01,2013-02-07 06:52:00,
2013-02-07 01:57:00,18.0,9.9,30.39,WNW,282,0.0,3.0,70,0.00,,---,0.00,0.00,VWS V14.01,2013-02-07 06:57:00,
2013-02-07 02:00:00,18.0,9.6,30.39,WNW,282,0.0,3.0,69,0.00,,---,0.00,0.00,VWS V14.01,2013-02-07 07:00:00,
2013-02-07 02:02:00,18.1,9.7,30.39,WNW,301,0.0,3.0,69,0.00,,---,0.00,0.00,VWS V14.01,2013-02-07 07:02:00,
2013-02-07 02:07:00,18.1,9.3,30.40,WNW,288,0.0,5.0,68,0.00,,---,0.00,0.00,VWS V14.01,2013-02-07 07:07:00,
2013-02-07 02:12:00,18.1,9.3,30.40,WNW,288,0.0,5.0,68,0.00,,---,0.00,0.00,VWS V14.01,2013-02-07 07:12:00,
2013-02-07 02:17:00,18.0,9.6,30.40,WNW,288,0.0,5.0,69,0.00,,---,0.00,0.00,VWS V14.01,2013-02-07 07:17:00,
2013-02-07 02:22:00,17.8,9.4,30.40,West,271,0.0,5.0,69,0.00,,---,0.00,0.00,VWS V14.01,2013-02-07 07:22:00,
2013-02-07 02:27:00,17.8,9.4,30.40,West,271,0.0,5.0,69,0.00,,---,0.00,0.00,VWS V14.01,2013-02-07 07:27:00,
2013-02-07 02:30:00,16.7,8.0,30.42,West,271,0.0,1.0,68,0.00,,---,0.00,0.00,VWS V14.01,2013-02-07 07:30:00,
2013-02-07 02:32:00,17.8,9.0,30.39,SSW,205,0.0,0.0,68,0.00,,---,0.00,0.00,VWS V14.01,2013-02-07 07:32:00,
2013-02-07 02:37:00,17.8,9.0,30.40,West,271,1.0,4.0,68,0.00,,---,0.00,0.00,VWS V14.01,2013-02-07 07:37:00,
2013-02-07 02:42:00,17.8,9.4,30.40,West,271,0.0,4.0,69,0.00,,---,0.00,0.00,VWS V14.01,2013-02-07 07:42:00,
2013-02-07 02:47:00,17.7,8.9,30.41,West,271,0.0,4.0,68,0.00,,---,0.00,0.00,VWS V14.01,2013-02-07 07:47:00,
2013-02-07 02:52:00,17.5,8.8,30.41,West,271,0.0,4.0,68,0.00,,---,0.00,0.00,VWS V14.01,2013-02-07 07:52:00,
2013-02-07 02:57:00,17.5,8.8,30.42,West,271,3.0,4.0,68,0.00,,---,0.00,0.00,VWS V14.01,2013-02-07 07:57:00,
2013-02-07 03:00:00,15.7,8.3,30.43,West,271,0.0,0.0,72,0.00,,---,0.00,0.00,VWS V14.01,2013-02-07 08:00:00,
2013-02-07 03:02:00,17.4,8.3,30.42,West,271,0.0,0.0,67,0.00,,---,0.00,0.00,VWS V14.01,2013-02-07 08:02:00,
2013-02-07 03:07:00,17.3,8.2,30.43,West,271,0.0,0.0,67,0.00,,---,0.00,0.00,VWS V14.01,2013-02-07 08:07:00,
2013-02-07 03:12:00,17.2,8.1,30.42,West,271,0.0,0.0,67,0.00,,---,0.00,0.00,VWS V14.01,2013-02-07 08:12:00,
2013-02-07 03:17:00,17.1,8.1,30.42,West,271,0.0,1.0,67,0.00,,---,0.00,0.00,VWS V14.01,2013-02-07 08:17:00,
2013-02-07 03:22:00,17.0,8.3,30.43,West,271,0.0,1.0,68,0.00,,---,0.00,0.00,VWS V14.01,2013-02-07 08:22:00,
2013-02-07 03:27:00,16.8,8.1,30.43,West,271,0.0,1.0,68,0.00,,---,0.00,0.00,VWS V14.01,2013-02-07 08:27:00,
2013-02-07 03:30:00,16.7,8.0,30.42,West,271,0.0,1.0,68,0.00,,---,0.00,0.00,VWS V14.01,2013-02-07 08:30:00,
2013-02-07 03:32:00,16.6,7.9,30.42,West,271,0.0,0.0,68,0.00,,---,0.00,0.00,VWS V14.01,2013-02-07 08:32:00,
2013-02-07 03:37:00,16.5,8.1,30.43,West,271,0.0,0.0,69,0.00,,---,0.00,0.00,VWS V14.01,2013-02-07 08:37:00,
2013-02-07 03:41:00,16.3,7.9,30.43,West,271,0.0,0.0,69,0.00,,---,0.00,0.00,VWS V14.01,2013-02-07 08:41:00,
2013-02-07 03:46:00,16.1,8.1,30.43,West,271,0.0,0.0,70,0.00,,---,0.00,0.00,VWS V14.01,2013-02-07 08:46:00,
2013-02-07 03:51:00,15.9,7.9,30.43,West,271,0.0,0.0,70,0.00,,---,0.00,0.00,VWS V14.01,2013-02-07 08:51:00,
2013-02-07 03:56:00,15.8,8.1,30.43,West,271,0.0,0.0,71,0.00,,---,0.00,0.00,VWS V14.01,2013-02-07 08:56:00,
2013-02-07 04:00:00,14.1,8.2,30.45,West,271,0.0,0.0,77,0.00,,---,0.00,0.00,VWS V14.01,2013-02-07 09:00:00,
2013-02-07 04:01:00,15.6,8.2,30.43,West,271,0.0,0.0,72,0.00,,---,0.00,0.00,VWS V14.01,2013-02-07 09:01:00,
2013-02-07 04:06:00,15.4,8.3,30.43,West,271,0.0,0.0,73,0.00,,---,0.00,0.00,VWS V14.01,2013-02-07 09:06:00,
2013-02-07 04:12:00,15.2,7.8,30.43,West,271,0.0,0.0,72,0.00,,---,0.00,0.00,VWS V14.01,2013-02-07 09:12:00,
2013-02-07 04:17:00,15.0,7.9,30.44,West,271,0.0,0.0,73,0.00,,---,0.00,0.00,VWS V14.01,2013-02-07 09:17:00,
2013-02-07 04:21:00,14.8,8.0,30.44,West,271,0.0,0.0,74,0.00,,---,0.00,0.00,VWS V14.01,2013-02-07 09:21:00,
2013-02-07 04:26:00,14.7,7.9,30.44,West,271,0.0,0.0,74,0.00,,---,0.00,0.00,VWS V14.01,2013-02-07 09:26:00,
2013-02-07 04:30:00,14.6,7.8,30.44,West,271,0.0,0.0,74,0.00,,---,0.00,0.00,VWS V14.01,2013-02-07 09:30:00,
2013-02-07 04:31:00,14.5,7.7,30.44,West,271,0.0,0.0,74,0.00,,---,0.00,0.00,VWS V14.01,2013-02-07 09:31:00,
2013-02-07 04:36:00,14.3,7.8,30.44,West,271,0.0,0.0,75,0.00,,---,0.00,0.00,VWS V14.01,2013-02-07 09:36:00,
2013-02-07 04:41:00,14.2,8.0,30.44,West,271,0.0,0.0,76,0.00,,---,0.00,0.00,VWS V14.01,2013-02-07 09:41:00,
2013-02-07 04:46:00,14.2,8.3,30.44,West,271,0.0,0.0,77,0.00,,---,0.00,0.00,VWS V14.01,2013-02-07 09:46:00,
2013-02-07 04:51:00,14.2,8.3,30.44,West,271,0.0,0.0,77,0.00,,---,0.00,0.00,VWS V14.01,2013-02-07 09:51:00,
2013-02-07 04:56:00,14.1,8.2,30.44,West,271,0.0,0.0,77,0.00,,---,0.00,0.00,VWS V14.01,2013-02-07 09:56:00,
2013-02-07 05:00:00,12.8,7.8,30.47,West,271,0.0,0.0,80,0.00,,---,0.00,0.00,VWS V14.01,2013-02-07 10:00:00,
2013-02-07 05:01:00,14.0,8.1,30.45,West,271,0.0,0.0,77,0.00,,---,0.00,0.00,VWS V14.01,2013-02-07 10:01:00,
2013-02-07 05:06:00,13.9,8.3,30.44,West,271,0.0,0.0,78,0.00,,---,0.00,0.00,VWS V14.01,2013-02-07 10:06:00,
2013-02-07 05:11:00,13.8,8.2,30.44,West,271,0.0,0.0,78,0.00,,---,0.00,0.00,VWS V14.01,2013-02-07 10:11:00,
2013-02-07 05:16:00,13.7,7.8,30.45,West,271,0.0,0.0,77,0.00,,---,0.00,0.00,VWS V14.01,2013-02-07 10:16:00,
2013-02-07 05:21:00,13.6,8.0,30.45,West,271,0.0,0.0,78,0.00,,---,0.00,0.00,VWS V14.01,2013-02-07 10:21:00,
2013-02-07 05:26:00,13.5,7.9,30.45,West,271,0.0,0.0,78,0.00,,---,0.00,0.00,VWS V14.01,2013-02-07 10:26:00,
2013-02-07 05:30:00,12.5,7.8,30.49,West,271,0.0,0.0,81,0.00,,---,0.00,0.00,VWS V14.01,2013-02-07 10:30:00,
2013-02-07 05:31:00,13.3,8.0,30.46,West,271,0.0,0.0,79,0.00,,---,0.00,0.00,VWS V14.01,2013-02-07 10:31:00,
2013-02-07 05:36:00,13.2,7.9,30.46,West,271,0.0,0.0,79,0.00,,---,0.00,0.00,VWS V14.01,2013-02-07 10:36:00,
2013-02-07 05:41:00,13.1,7.8,30.46,West,271,0.0,0.0,79,0.00,,---,0.00,0.00,VWS V14.01,2013-02-07 10:41:00,
2013-02-07 05:47:00,13.0,8.0,30.46,West,271,0.0,0.0,80,0.00,,---,0.00,0.00,VWS V14.01,2013-02-07 10:47:00,
2013-02-07 05:52:00,12.9,7.9,30.47,West,271,0.0,0.0,80,0.00,,---,0.00,0.00,VWS V14.01,2013-02-07 10:52:00,
2013-02-07 05:57:00,12.8,7.8,30.47,West,271,0.0,0.0,80,0.00,,---,0.00,0.00,VWS V14.01,2013-02-07 10:57:00,
2013-02-07 06:00:00,12.8,7.8,30.47,West,271,0.0,0.0,80,0.00,,---,0.00,0.00,VWS V14.01,2013-02-07 11:00:00,
2013-02-07 06:02:00,12.8,7.8,30.48,West,271,0.0,0.0,80,0.00,,---,0.00,0.00,VWS V14.01,2013-02-07 11:02:00,
2013-02-07 06:07:00,12.8,7.8,30.48,West,271,0.0,0.0,80,0.00,,---,0.00,0.00,VWS V14.01,2013-02-07 11:07:00,
2013-02-07 06:12:00,12.8,8.4,30.48,West,271,0.0,0.0,82,0.00,,---,0.00,0.00,VWS V14.01,2013-02-07 11:12:00,
2013-02-07 06:17:00,12.8,8.1,30.48,West,271,0.0,0.0,81,0.00,,---,0.00,0.00,VWS V14.01,2013-02-07 11:17:00,
2013-02-07 06:21:00,12.7,8.0,30.48,West,271,0.0,0.0,81,0.00,,---,0.00,0.00,VWS V14.01,2013-02-07 11:21:00,
2013-02-07 06:26:00,12.6,7.9,30.48,West,271,0.0,0.0,81,0.00,,---,0.00,0.00,VWS V14.01,2013-02-07 11:26:00,
2013-02-07 06:30:00,12.5,8.6,30.53,West,271,0.0,0.0,84,0.00,,---,0.00,11.00,VWS V14.01,2013-02-07 11:30:00,
2013-02-07 06:31:00,12.5,8.1,30.49,West,271,0.0,0.0,82,0.00,,---,0.00,0.00,VWS V14.01,2013-02-07 11:31:00,
2013-02-07 06:36:00,12.4,7.7,30.49,West,271,0.0,0.0,81,0.00,,---,0.00,0.00,VWS V14.01,2013-02-07 11:36:00,
2013-02-07 06:41:00,12.3,7.9,30.49,West,271,0.0,0.0,82,0.00,,---,0.00,0.00,VWS V14.01,2013-02-07 11:41:00,
2013-02-07 06:46:00,12.2,7.8,30.49,West,271,0.0,0.0,82,0.00,,---,0.00,0.00,VWS V14.01,2013-02-07 11:46:00,
2013-02-07 06:51:00,12.1,7.7,30.49,West,271,0.0,0.0,82,0.00,,---,0.00,0.00,VWS V14.01,2013-02-07 11:51:00,
2013-02-07 06:56:00,12.1,7.7,30.50,West,271,0.0,0.0,82,0.00,,---,0.00,0.00,VWS V14.01,2013-02-07 11:56:00,
2013-02-07 07:00:00,13.0,9.1,30.54,West,271,0.0,0.0,84,0.00,,---,0.00,26.00,VWS V14.01,2013-02-07 12:00:00,
2013-02-07 07:01:00,12.1,7.9,30.50,West,271,0.0,0.0,83,0.00,,---,0.00,0.00,VWS V14.01,2013-02-07 12:01:00,
2013-02-07 07:06:00,12.2,10.3,30.50,West,271,0.0,0.0,92,0.00,,---,0.00,0.00,VWS V14.01,2013-02-07 12:06:00,
2013-02-07 07:11:00,12.3,8.1,30.51,West,271,0.0,0.0,83,0.00,,---,0.00,5.00,VWS V14.01,2013-02-07 12:11:00,
2013-02-07 07:16:00,12.3,8.1,30.52,West,271,0.0,0.0,83,0.00,,---,0.00,7.00,VWS V14.01,2013-02-07 12:16:00,
2013-02-07 07:21:00,12.3,8.4,30.52,West,271,0.0,0.0,84,0.00,,---,0.00,9.00,VWS V14.01,2013-02-07 12:21:00,
2013-02-07 07:26:00,12.4,8.5,30.52,West,271,0.0,0.0,84,0.00,,---,0.00,9.00,VWS V14.01,2013-02-07 12:26:00,
2013-02-07 07:30:00,12.5,8.6,30.53,West,271,0.0,0.0,84,0.00,,---,0.00,11.00,VWS V14.01,2013-02-07 12:30:00,
2013-02-07 07:31:00,12.5,8.6,30.53,West,271,0.0,0.0,84,0.00,,---,0.00,12.00,VWS V14.01,2013-02-07 12:31:00,
2013-02-07 07:36:00,12.6,8.7,30.53,West,271,0.0,0.0,84,0.00,,---,0.00,14.00,VWS V14.01,2013-02-07 12:36:00,
2013-02-07 07:41:00,12.7,8.5,30.53,West,271,0.0,0.0,83,0.00,,---,0.00,16.00,VWS V14.01,2013-02-07 12:41:00,
2013-02-07 07:46:00,12.7,8.5,30.53,West,271,0.0,0.0,83,0.00,,---,0.00,18.00,VWS V14.01,2013-02-07 12:46:00,
2013-02-07 07:51:00,12.8,8.6,30.54,West,271,0.0,0.0,83,0.00,,---,0.00,21.00,VWS V14.01,2013-02-07 12:51:00,
2013-02-07 07:56:00,12.9,9.0,30.54,West,271,0.0,0.0,84,0.00,,---,0.00,23.00,VWS V14.01,2013-02-07 12:56:00,
2013-02-07 08:00:00,19.3,10.8,30.55,NE,51,1.0,3.0,69,0.00,,---,0.00,135.00,VWS V14.01,2013-02-07 13:00:00,
2013-02-07 08:01:00,13.1,9.2,30.54,West,271,0.0,0.0,84,0.00,,---,0.00,28.00,VWS V14.01,2013-02-07 13:01:00,
2013-02-07 08:06:00,13.1,8.9,30.54,West,271,0.0,0.0,83,0.00,,---,0.00,32.00,VWS V14.01,2013-02-07 13:06:00,
2013-02-07 08:11:00,13.2,9.3,30.54,West,271,0.0,0.0,84,0.00,,---,0.00,44.00,VWS V14.01,2013-02-07 13:11:00,
2013-02-07 08:16:00,13.5,9.8,30.54,West,271,0.0,0.0,85,0.00,,---,0.00,86.00,VWS V14.01,2013-02-07 13:16:00,
2013-02-07 08:21:00,13.9,10.2,30.54,West,271,0.0,0.0,85,0.00,,---,0.00,97.00,VWS V14.01,2013-02-07 13:21:00,
2013-02-07 08:26:00,14.5,10.6,30.55,West,271,0.0,0.0,84,0.00,,---,0.00,105.00,VWS V14.01,2013-02-07 13:26:00,
2013-02-07 08:30:00,21.6,9.1,30.55,ENE,61,0.0,5.0,58,0.00,,---,0.00,257.00,VWS V14.01,2013-02-07 13:30:00,
2013-02-07 08:31:00,15.2,11.0,30.55,West,271,0.0,0.0,83,0.00,,---,0.00,178.00,VWS V14.01,2013-02-07 13:31:00,
2013-02-07 08:36:00,16.1,11.3,30.55,West,271,0.0,0.0,81,0.00,,---,0.00,197.00,VWS V14.01,2013-02-07 13:36:00,
2013-02-07 08:41:00,17.0,10.5,30.55,WNW,286,0.0,2.0,75,0.00,,---,0.00,225.00,VWS V14.01,2013-02-07 13:41:00,
2013-02-07 08:46:00,17.7,10.2,30.55,WNW,286,0.0,2.0,72,0.00,,---,0.00,241.00,VWS V14.01,2013-02-07 13:46:00,
2013-02-07 08:51:00,18.3,9.9,30.55,NE,51,0.0,3.0,69,0.00,,---,0.00,251.00,VWS V14.01,2013-02-07 13:51:00,
2013-02-07 08:56:00,18.9,10.1,30.54,NE,51,0.0,3.0,68,0.00,,---,0.00,278.00,VWS V14.01,2013-02-07 13:56:00,
2013-02-07 09:00:00,21.9,8.6,30.56,WNW,288,2.0,3.0,56,0.00,,---,0.00,257.00,VWS V14.01,2013-02-07 14:00:00,
2013-02-07 09:01:00,19.4,9.9,30.55,NE,51,0.0,3.0,66,0.00,,---,0.00,255.00,VWS V14.01,2013-02-07 14:01:00,
2013-02-07 09:06:00,19.7,9.5,30.55,NNE,31,3.0,3.0,64,0.00,,---,0.00,322.00,VWS V14.01,2013-02-07 14:06:00,
2013-02-07 09:11:00,19.9,9.0,30.55,NNE,31,0.0,3.0,62,0.00,,---,0.00,330.00,VWS V14.01,2013-02-07 14:11:00,
2013-02-07 09:16:00,20.4,9.8,30.55,East,82,0.0,3.0,63,0.00,,---,0.00,350.00,VWS V14.01,2013-02-07 14:16:00,
2013-02-07 09:21:00,21.0,9.7,30.55,ENE,61,3.0,5.0,61,0.00,,---,0.00,380.00,VWS V14.01,2013-02-07 14:21:00,
2013-02-07 09:26:00,21.3,8.8,30.55,ENE,61,0.0,5.0,58,0.00,,---,0.00,260.00,VWS V14.01,2013-02-07 14:26:00,
2013-02-07 09:30:00,23.9,7.5,30.55,NNE,18,0.0,5.0,49,0.00,,---,0.00,508.00,VWS V14.01,2013-02-07 14:30:00,
2013-02-07 09:31:00,21.6,9.5,30.56,ENE,61,0.0,2.0,59,0.00,,---,0.00,355.00,VWS V14.01,2013-02-07 14:31:00,
2013-02-07 09:36:00,21.9,9.4,30.55,South,186,3.0,3.0,58,0.00,,---,0.00,279.00,VWS V14.01,2013-02-07 14:36:00,
2013-02-07 09:41:00,21.6,8.7,30.56,South,186,0.0,3.0,57,0.00,,---,0.00,213.00,VWS V14.01,2013-02-07 14:41:00,
2013-02-07 09:46:00,21.6,8.3,30.56,SSE,165,0.0,3.0,56,0.00,,---,0.00,227.00,VWS V14.01,2013-02-07 14:46:00,
2013-02-07 09:51:00,21.8,8.9,30.56,South,169,0.0,3.0,57,0.00,,---,0.00,260.00,VWS V14.01,2013-02-07 14:51:00,
2013-02-07 09:56:00,21.7,10.3,30.56,WSW,244,0.0,3.0,61,0.00,,---,0.00,262.00,VWS V14.01,2013-02-07 14:56:00,
2013-02-07 10:00:00,27.0,8.0,30.55,NNE,27,3.0,7.0,44,0.00,,---,0.00,561.00,VWS V14.01,2013-02-07 15:00:00,
2013-02-07 10:01:00,22.0,8.3,30.56,WNW,288,0.0,2.0,55,0.00,,---,0.00,339.00,VWS V14.01,2013-02-07 15:01:00,
2013-02-07 10:06:00,22.6,8.5,30.56,NE,52,0.0,4.0,54,0.00,,---,0.00,461.00,VWS V14.01,2013-02-07 15:06:00,
2013-02-07 10:11:00,23.0,7.6,30.56,NE,52,0.0,4.0,51,0.00,,---,0.00,454.00,VWS V14.01,2013-02-07 15:11:00,
2013-02-07 10:16:00,23.6,8.6,30.55,ENE,72,0.0,5.0,52,0.00,,---,0.00,466.00,VWS V14.01,2013-02-07 15:16:00,
2013-02-07 10:21:00,24.1,8.6,30.55,ENE,74,0.0,5.0,51,0.00,,---,0.00,483.00,VWS V14.01,2013-02-07 15:21:00,
2013-02-07 10:26:00,24.2,7.8,30.55,WSW,248,1.0,5.0,49,0.00,,---,0.00,503.00,VWS V14.01,2013-02-07 15:26:00,
2013-02-07 10:30:00,28.4,8.8,30.53,ENE,66,0.0,6.0,43,0.00,,---,0.00,557.00,VWS V14.01,2013-02-07 15:30:00,
2013-02-07 10:31:00,24.1,8.2,30.55,ENE,59,0.0,5.0,50,0.00,,---,0.00,506.00,VWS V14.01,2013-02-07 15:31:00,
2013-02-07 10:36:00,24.8,8.8,30.55,SE,125,0.0,5.0,50,0.00,,---,0.00,527.00,VWS V14.01,2013-02-07 15:36:00,
2013-02-07 10:41:00,25.4,8.9,30.55,WNW,294,0.0,5.0,49,0.00,,---,0.00,529.00,VWS V14.01,2013-02-07 15:41:00,
2013-02-07 10:46:00,26.4,9.8,30.55,ENE,66,2.0,5.0,49,0.00,,---,0.00,540.00,VWS V14.01,2013-02-07 15:46:00,
2013-02-07 10:51:00,27.3,8.8,30.55,East,83,5.0,7.0,45,0.00,,---,0.00,547.00,VWS V14.01,2013-02-07 15:51:00,
2013-02-07 10:56:00,26.9,7.4,30.55,ENE,69,0.0,7.0,43,0.00,,---,0.00,559.00,VWS V14.01,2013-02-07 15:56:00,
2013-02-07 11:00:00,28.6,8.4,30.51,East,82,0.0,5.0,42,0.00,,---,0.00,496.00,VWS V14.01,2013-02-07 16:00:00,
2013-02-07 11:01:00,27.2,8.2,30.54,NNE,30,5.0,5.0,44,0.00,,---,0.00,473.00,VWS V14.01,2013-02-07 16:01:00,
2013-02-07 11:06:00,27.2,7.7,30.54,NW,319,0.0,5.0,43,0.00,,---,0.00,517.00,VWS V14.01,2013-02-07 16:06:00,
2013-02-07 11:11:00,27.1,7.6,30.54,NW,319,0.0,5.0,43,0.00,,---,0.00,499.00,VWS V14.01,2013-02-07 16:11:00,
2013-02-07 11:16:00,27.4,8.4,30.54,ENE,67,0.0,5.0,44,0.00,,---,0.00,524.00,VWS V14.01,2013-02-07 16:16:00,
2013-02-07 11:21:00,27.6,8.6,30.53,East,82,1.0,5.0,44,0.00,,---,0.00,529.00,VWS V14.01,2013-02-07 16:21:00,
2013-02-07 11:26:00,28.2,8.6,30.53,ENE,66,2.0,6.0,43,0.00,,---,0.00,557.00,VWS V14.01,2013-02-07 16:26:00,
2013-02-07 11:30:00,29.0,8.3,30.51,NE,49,0.0,5.0,41,0.00,,---,0.00,172.00,VWS V14.01,2013-02-07 16:30:00,
2013-02-07 11:31:00,28.6,9.5,30.53,ENE,66,0.0,2.0,44,0.00,,---,0.00,568.00,VWS V14.01,2013-02-07 16:31:00,
2013-02-07 11:36:00,28.1,7.4,30.52,WSW,254,0.0,3.0,41,0.00,,---,0.00,552.00,VWS V14.01,2013-02-07 16:36:00,
2013-02-07 11:41:00,28.0,8.9,30.52,ENE,65,1.0,3.0,44,0.00,,---,0.00,582.00,VWS V14.01,2013-02-07 16:41:00,
2013-02-07 11:46:00,28.4,8.2,30.52,North,355,0.0,3.0,42,0.00,,---,0.00,582.00,VWS V14.01,2013-02-07 16:46:00,
2013-02-07 11:51:00,28.3,7.1,30.51,NNE,17,0.0,3.0,40,0.00,,---,0.00,575.00,VWS V14.01,2013-02-07 16:51:00,
2013-02-07 11:56:00,28.4,7.7,30.51,East,82,0.0,5.0,41,0.00,,---,0.00,397.00,VWS V14.01,2013-02-07 16:56:00,
2013-02-07 12:00:00,29.7,9.4,30.50,ENE,73,0.0,5.0,42,0.00,,---,0.00,536.00,VWS V14.01,2013-02-07 17:00:00,
2013-02-07 12:01:00,28.7,8.5,30.51,East,82,0.0,0.0,42,0.00,,---,0.00,432.00,VWS V14.01,2013-02-07 17:01:00,
2013-02-07 12:06:00,29.0,8.8,30.51,ENE,63,0.0,5.0,42,0.00,,---,0.00,276.00,VWS V14.01,2013-02-07 17:06:00,
2013-02-07 12:11:00,28.8,8.6,30.51,ENE,68,0.0,5.0,42,0.00,,---,0.00,232.00,VWS V14.01,2013-02-07 17:11:00,
2013-02-07 12:16:00,28.8,8.6,30.51,ESE,119,2.0,5.0,42,0.00,,---,0.00,367.00,VWS V14.01,2013-02-07 17:16:00,
2013-02-07 12:21:00,29.0,8.3,30.51,ENE,60,0.0,5.0,41,0.00,,---,0.00,243.00,VWS V14.01,2013-02-07 17:21:00,
2013-02-07 12:26:00,29.0,8.3,30.51,ENE,71,3.0,5.0,41,0.00,,---,0.00,262.00,VWS V14.01,2013-02-07 17:26:00,
2013-02-07 12:30:00,31.6,9.5,30.49,WSW,254,4.0,6.0,39,0.00,,---,0.00,512.00,VWS V14.01,2013-02-07 17:30:00,
2013-02-07 12:31:00,29.0,8.3,30.51,NE,49,0.0,0.0,41,0.00,,---,0.00,299.00,VWS V14.01,2013-02-07 17:31:00,
2013-02-07 12:36:00,29.0,7.7,30.51,NE,51,0.0,3.0,40,0.00,,---,0.00,274.00,VWS V14.01,2013-02-07 17:36:00,
2013-02-07 12:41:00,29.1,8.4,30.50,NE,51,1.0,3.0,41,0.00,,---,0.00,209.00,VWS V14.01,2013-02-07 17:41:00,
2013-02-07 12:46:00,29.3,8.5,30.50,NW,313,2.0,3.0,41,0.00,,---,0.00,294.00,VWS V14.01,2013-02-07 17:46:00,
2013-02-07 12:51:00,29.4,9.2,30.50,SE,134,0.0,5.0,42,0.00,,---,0.00,232.00,VWS V14.01,2013-02-07 17:51:00,
2013-02-07 12:56:00,29.5,8.2,30.50,SSE,159,2.0,5.0,40,0.00,,---,0.00,489.00,VWS V14.01,2013-02-07 17:56:00,
2013-02-07 13:00:00,30.8,9.3,30.47,West,264,2.0,5.0,40,0.00,,---,0.00,158.00,VWS V14.01,2013-02-07 18:00:00,
2013-02-07 13:01:00,29.8,9.0,30.49,WSW,243,0.0,0.0,41,0.00,,---,0.00,536.00,VWS V14.01,2013-02-07 18:01:00,
2013-02-07 13:06:00,30.2,8.8,30.50,NE,51,0.0,3.0,40,0.00,,---,0.00,541.00,VWS V14.01,2013-02-07 18:06:00,
2013-02-07 13:11:00,30.5,9.1,30.49,NNW,339,0.0,5.0,40,0.00,,---,0.00,552.00,VWS V14.01,2013-02-07 18:11:00,
2013-02-07 13:16:00,30.7,9.2,30.49,WSW,243,0.0,5.0,40,0.00,,---,0.00,550.00,VWS V14.01,2013-02-07 18:16:00,
2013-02-07 13:21:00,31.1,9.6,30.49,WSW,243,0.0,5.0,40,0.00,,---,0.00,538.00,VWS V14.01,2013-02-07 18:21:00,
2013-02-07 13:26:00,31.4,10.4,30.49,West,270,2.0,6.0,41,0.00,,---,0.00,517.00,VWS V14.01,2013-02-07 18:26:00,
2013-02-07 13:30:00,30.5,9.1,30.46,West,277,1.0,5.0,40,0.00,,---,0.00,185.00,VWS V14.01,2013-02-07 18:30:00,
2013-02-07 13:31:00,31.6,9.5,30.48,WNW,283,3.0,5.0,39,0.00,,---,0.00,513.00,VWS V14.01,2013-02-07 18:31:00,
2013-02-07 13:36:00,31.3,9.2,30.48,SW,216,0.0,5.0,39,0.00,,---,0.00,494.00,VWS V14.01,2013-02-07 18:36:00,
2013-02-07 13:41:00,31.4,10.4,30.48,WSW,248,0.0,5.0,41,0.00,,---,0.00,480.00,VWS V14.01,2013-02-07 18:41:00,
2013-02-07 13:46:00,31.6,10.6,30.48,West,281,1.0,5.0,41,0.00,,---,0.00,492.00,VWS V14.01,2013-02-07 18:46:00,
2013-02-07 13:51:00,31.4,9.9,30.47,WNW,294,3.0,5.0,40,0.00,,---,0.00,209.00,VWS V14.01,2013-02-07 18:51:00,
2013-02-07 13:56:00,31.1,9.1,30.47,WNW,295,0.0,5.0,39,0.00,,---,0.00,204.00,VWS V14.01,2013-02-07 18:56:00,
2013-02-07 14:00:00,30.3,8.9,30.47,West,277,0.0,2.0,40,0.00,,---,0.00,114.00,VWS V14.01,2013-02-07 19:00:00,
2013-02-07 14:01:00,30.7,9.8,30.47,West,264,2.0,2.0,41,0.00,,---,0.00,172.00,VWS V14.01,2013-02-07 19:01:00,
2013-02-07 14:06:00,30.4,9.0,30.47,West,261,0.0,5.0,40,0.00,,---,0.00,272.00,VWS V14.01,2013-02-07 19:06:00,
2013-02-07 14:11:00,30.2,9.9,30.47,WNW,289,0.0,5.0,42,0.00,,---,0.00,127.00,VWS V14.01,2013-02-07 19:11:00,
2013-02-07 14:16:00,30.0,8.6,30.47,WNW,289,0.0,5.0,40,0.00,,---,0.00,181.00,VWS V14.01,2013-02-07 19:16:00,
2013-02-07 14:21:00,30.0,9.2,30.47,NW,305,2.0,5.0,41,0.00,,---,0.00,483.00,VWS V14.01,2013-02-07 19:21:00,
2013-02-07 14:26:00,30.5,9.1,30.46,SW,233,0.0,5.0,40,0.00,,---,0.00,250.00,VWS V14.01,2013-02-07 19:26:00,
2013-02-07 14:30:00,29.8,9.5,30.46,WNW,282,0.0,5.0,42,0.00,,---,0.00,83.00,VWS V14.01,2013-02-07 19:30:00,
2013-02-07 14:31:00,30.5,9.1,30.47,West,277,0.0,1.0,40,0.00,,---,0.00,223.00,VWS V14.01,2013-02-07 19:31:00,
2013-02-07 14:36:00,30.4,9.0,30.47,West,277,0.0,1.0,40,0.00,,---,0.00,123.00,VWS V14.01,2013-02-07 19:36:00,
2013-02-07 14:41:00,30.2,8.8,30.47,West,277,0.0,2.0,40,0.00,,---,0.00,149.00,VWS V14.01,2013-02-07 19:41:00,
2013-02-07 14:46:00,30.3,9.4,30.47,West,277,0.0,2.0,41,0.00,,---,0.00,137.00,VWS V14.01,2013-02-07 19:46:00,
2013-02-07 14:51:00,30.3,8.9,30.47,West,277,1.0,2.0,40,0.00,,---,0.00,107.00,VWS V14.01,2013-02-07 19:51:00,
2013-02-07 14:56:00,30.3,8.9,30.47,West,277,0.0,2.0,40,0.00,,---,0.00,116.00,VWS V14.01,2013-02-07 19:56:00,
2013-02-07 15:00:00,29.8,10.1,30.45,WNW,282,1.0,3.0,43,0.00,,---,0.00,83.00,VWS V14.01,2013-02-07 20:00:00,
2013-02-07 15:01:00,30.2,8.8,30.47,West,277,0.0,2.0,40,0.00,,---,0.00,116.00,VWS V14.01,2013-02-07 20:01:00,
2013-02-07 15:06:00,30.2,9.9,30.47,West,270,2.0,3.0,42,0.00,,---,0.00,125.00,VWS V14.01,2013-02-07 20:06:00,
2013-02-07 15:11:00,30.1,10.3,30.47,WNW,284,0.0,5.0,43,0.00,,---,0.00,105.00,VWS V14.01,2013-02-07 20:11:00,
2013-02-07 15:16:00,30.0,9.7,30.46,WNW,284,1.0,5.0,42,0.00,,---,0.00,100.00,VWS V14.01,2013-02-07 20:16:00,
2013-02-07 15:21:00,29.9,10.1,30.47,NW,308,0.0,5.0,43,0.00,,---,0.00,86.00,VWS V14.01,2013-02-07 20:21:00,
2013-02-07 15:26:00,29.8,9.5,30.46,WNW,282,0.0,5.0,42,0.00,,---,0.00,84.00,VWS V14.01,2013-02-07 20:26:00,
2013-02-07 15:30:00,29.8,9.5,30.44,WNW,282,0.0,1.0,42,0.00,,---,0.00,32.00,VWS V14.01,2013-02-07 20:30:00,
2013-02-07 15:31:00,29.7,10.0,30.46,WNW,282,0.0,0.0,43,0.00,,---,0.00,83.00,VWS V14.01,2013-02-07 20:31:00,
2013-02-07 15:36:00,29.7,9.4,30.46,WNW,282,2.0,2.0,42,0.00,,---,0.00,88.00,VWS V14.01,2013-02-07 20:36:00,
2013-02-07 15:41:00,29.7,10.5,30.45,WNW,283,0.0,3.0,44,0.00,,---,0.00,84.00,VWS V14.01,2013-02-07 20:41:00,
2013-02-07 15:46:00,29.7,10.0,30.45,WNW,282,0.0,3.0,43,0.00,,---,0.00,81.00,VWS V14.01,2013-02-07 20:46:00,
2013-02-07 15:51:00,29.7,10.0,30.45,WNW,282,0.0,3.0,43,0.00,,---,0.00,98.00,VWS V14.01,2013-02-07 20:51:00,
2013-02-07 15:56:00,29.7,10.5,30.45,WNW,282,0.0,3.0,44,0.00,,---,0.00,88.00,VWS V14.01,2013-02-07 20:56:00,
2013-02-07 16:00:00,29.5,9.2,30.44,WNW,282,0.0,3.0,42,0.00,,---,0.00,11.00,VWS V14.01,2013-02-07 21:00:00,
2013-02-07 16:01:00,29.8,10.1,30.45,WNW,282,0.0,1.0,43,0.00,,---,0.00,81.00,VWS V14.01,2013-02-07 21:01:00,
2013-02-07 16:06:00,29.8,10.1,30.45,WNW,282,0.0,1.0,43,0.00,,---,0.00,74.00,VWS V14.01,2013-02-07 21:06:00,
2013-02-07 16:11:00,29.7,9.4,30.45,WNW,282,0.0,1.0,42,0.00,,---,0.00,56.00,VWS V14.01,2013-02-07 21:11:00,
2013-02-07 16:16:00,29.8,9.5,30.45,WNW,282,0.0,1.0,42,0.00,,---,0.00,54.00,VWS V14.01,2013-02-07 21:16:00,
2013-02-07 16:21:00,29.7,8.9,30.45,WNW,282,0.0,1.0,41,0.00,,---,0.00,49.00,VWS V14.01,2013-02-07 21:21:00,
2013-02-07 16:26:00,29.8,9.5,30.44,WNW,282,0.0,1.0,42,0.00,,---,0.00,37.00,VWS V14.01,2013-02-07 21:26:00,
2013-02-07 16:30:00,29.4,10.2,30.45,WNW,283,0.0,0.0,44,0.00,,---,0.00,0.00,VWS V14.01,2013-02-07 21:30:00,
2013-02-07 16:31:00,29.8,9.5,30.44,WNW,282,0.0,0.0,42,0.00,,---,0.00,28.00,VWS V14.01,2013-02-07 21:31:00,
2013-02-07 16:36:00,29.8,9.5,30.44,WNW,283,0.0,3.0,42,0.00,,---,0.00,26.00,VWS V14.01,2013-02-07 21:36:00,
2013-02-07 16:41:00,29.7,8.9,30.44,WNW,282,0.0,3.0,41,0.00,,---,0.00,25.00,VWS V14.01,2013-02-07 21:41:00,
2013-02-07 16:46:00,29.7,9.4,30.44,WNW,282,0.0,3.0,42,0.00,,---,0.00,23.00,VWS V14.01,2013-02-07 21:46:00,
2013-02-07 16:51:00,29.6,9.3,30.44,WNW,282,0.0,3.0,42,0.00,,---,0.00,19.00,VWS V14.01,2013-02-07 21:51:00,
2013-02-07 16:56:00,29.6,9.3,30.44,WNW,282,0.0,3.0,42,0.00,,---,0.00,14.00,VWS V14.01,2013-02-07 21:56:00,
2013-02-07 17:00:00,29.2,11.0,30.45,WNW,283,0.0,0.0,46,0.00,,---,0.00,0.00,VWS V14.01,2013-02-07 22:00:00,
2013-02-07 17:01:00,29.5,9.2,30.44,WNW,282,0.0,0.0,42,0.00,,---,0.00,11.00,VWS V14.01,2013-02-07 22:01:00,
2013-02-07 17:06:00,29.5,9.8,30.44,WNW,282,0.0,0.0,43,0.00,,---,0.00,7.00,VWS V14.01,2013-02-07 22:06:00,
2013-02-07 17:11:00,29.5,9.8,30.44,WNW,282,0.0,0.0,43,0.00,,---,0.00,5.00,VWS V14.01,2013-02-07 22:11:00,
2013-02-07 17:16:00,29.4,10.2,30.44,WNW,283,0.0,0.0,44,0.00,,---,0.00,0.00,VWS V14.01,2013-02-07 22:16:00,
2013-02-07 17:21:00,29.5,9.2,30.44,WNW,282,0.0,0.0,42,0.00,,---,0.00,0.00,VWS V14.01,2013-02-07 22:21:00,
2013-02-07 17:26:00,29.4,9.7,30.44,WNW,282,0.0,0.0,43,0.00,,---,0.00,0.00,VWS V14.01,2013-02-07 22:26:00,
2013-02-07 17:30:00,28.9,12.1,30.46,WNW,282,0.0,0.0,49,0.00,,---,0.00,0.00,VWS V14.01,2013-02-07 22:30:00,
2013-02-07 17:31:00,29.4,10.2,30.44,WNW,282,0.0,0.0,44,0.00,,---,0.00,0.00,VWS V14.01,2013-02-07 22:31:00,
2013-02-07 17:36:00,29.4,10.2,30.44,WNW,283,0.0,0.0,44,0.00,,---,0.00,0.00,VWS V14.01,2013-02-07 22:36:00,
2013-02-07 17:41:00,29.3,10.1,30.44,WNW,282,0.0,0.0,44,0.00,,---,0.00,0.00,VWS V14.01,2013-02-07 22:41:00,
2013-02-07 17:48:00,29.2,10.0,30.45,WNW,282,0.0,0.0,44,0.00,,---,0.00,0.00,VWS V14.01,2013-02-07 22:48:00,
2013-02-07 17:53:00,29.2,10.5,30.45,WNW,283,0.0,0.0,45,0.00,,---,0.00,0.00,VWS V14.01,2013-02-07 22:53:00,
2013-02-07 17:58:00,29.2,11.0,30.45,WNW,282,0.0,0.0,46,0.00,,---,0.00,0.00,VWS V14.01,2013-02-07 22:58:00,
2013-02-07 18:00:00,27.9,12.6,30.46,WNW,282,0.0,1.0,52,0.00,,---,0.00,0.00,VWS V14.01,2013-02-07 23:00:00,
2013-02-07 18:03:00,29.1,10.9,30.45,WNW,282,0.0,0.0,46,0.00,,---,0.00,0.00,VWS V14.01,2013-02-07 23:03:00,
2013-02-07 18:08:00,29.1,11.4,30.46,WNW,282,0.0,0.0,47,0.00,,---,0.00,0.00,VWS V14.01,2013-02-07 23:08:00,
2013-02-07 18:13:00,29.0,11.3,30.46,WNW,282,0.0,0.0,47,0.00,,---,0.00,0.00,VWS V14.01,2013-02-07 23:13:00,
2013-02-07 18:18:00,29.0,11.8,30.46,WNW,282,0.0,0.0,48,0.00,,---,0.00,0.00,VWS V14.01,2013-02-07 23:18:00,
2013-02-07 18:23:00,29.0,11.8,30.46,WNW,282,0.0,0.0,48,0.00,,---,0.00,0.00,VWS V14.01,2013-02-07 23:23:00,
2013-02-07 18:28:00,28.9,12.1,30.46,WNW,283,0.0,0.0,49,0.00,,---,0.00,0.00,VWS V14.01,2013-02-07 23:28:00,
2013-02-07 18:30:00,26.4,12.0,30.45,North,350,0.0,2.0,54,0.00,,---,0.00,0.00,VWS V14.01,2013-02-07 23:30:00,
2013-02-07 18:33:00,28.9,12.1,30.46,WNW,282,0.0,1.0,49,0.00,,---,0.00,0.00,VWS V14.01,2013-02-07 23:33:00,
2013-02-07 18:38:00,28.7,12.4,30.46,WNW,282,0.0,1.0,50,0.00,,---,0.00,0.00,VWS V14.01,2013-02-07 23:38:00,
2013-02-07 18:43:00,28.5,11.8,30.46,WNW,282,0.0,1.0,49,0.00,,---,0.00,0.00,VWS V14.01,2013-02-07 23:43:00,
2013-02-07 18:48:00,28.3,12.5,30.46,WNW,282,0.0,1.0,51,0.00,,---,0.00,0.00,VWS V14.01,2013-02-07 23:48:00,
2013-02-07 18:53:00,28.1,11.9,30.46,WNW,282,0.0,1.0,50,0.00,,---,0.00,0.00,VWS V14.01,2013-02-07 23:53:00,
2013-02-07 18:58:00,28.0,12.7,30.46,WNW,282,0.0,1.0,52,0.00,,---,0.00,0.00,VWS V14.01,2013-02-07 23:58:00,
2013-02-07 19:00:00,26.2,12.2,30.46,North,350,0.0,2.0,55,0.00,,---,0.00,0.00,VWS V14.01,2013-02-08 00:00:00,
2013-02-07 19:03:00,27.8,11.6,30.46,WNW,282,0.0,0.0,50,0.00,,---,0.00,0.00,VWS V14.01,2013-02-08 00:03:00,
2013-02-07 19:08:00,27.6,11.9,30.46,WNW,282,0.0,0.0,51,0.00,,---,0.00,0.00,VWS V14.01,2013-02-08 00:08:00,
2013-02-07 19:13:00,27.3,12.0,30.45,WNW,282,0.0,0.0,52,0.00,,---,0.00,0.00,VWS V14.01,2013-02-08 00:13:00,
2013-02-07 19:18:00,27.0,12.2,30.45,North,350,0.0,2.0,53,0.00,,---,0.00,0.00,VWS V14.01,2013-02-08 00:18:00,
2013-02-07 19:23:00,26.7,12.3,30.45,North,350,0.0,2.0,54,0.00,,---,0.00,0.00,VWS V14.01,2013-02-08 00:23:00,
2013-02-07 19:28:00,26.5,12.1,30.45,North,350,0.0,2.0,54,0.00,,---,0.00,0.00,VWS V14.01,2013-02-08 00:28:00,
2013-02-07 19:30:00,25.1,14.6,30.46,North,350,0.0,0.0,64,0.00,,---,0.00,0.00,VWS V14.01,2013-02-08 00:30:00,
2013-02-07 19:33:00,26.3,12.3,30.45,North,350,0.0,0.0,55,0.00,,---,0.00,0.00,VWS V14.01,2013-02-08 00:33:00,
2013-02-07 19:38:00,26.2,11.8,30.45,North,350,0.0,0.0,54,0.00,,---,0.00,0.00,VWS V14.01,2013-02-08 00:38:00,
2013-02-07 19:43:00,26.0,12.5,30.45,North,350,1.0,2.0,56,0.00,,---,0.00,0.00,VWS V14.01,2013-02-08 00:43:00,
2013-02-07 19:48:00,26.0,12.5,30.45,North,350,1.0,2.0,56,0.00,,---,0.00,0.00,VWS V14.01,2013-02-08 00:48:00,
2013-02-07 19:53:00,26.3,12.3,30.45,North,350,0.0,2.0,55,0.00,,---,0.00,0.00,VWS V14.01,2013-02-08 00:53:00,
2013-02-07 19:58:00,26.2,12.2,30.46,North,350,0.0,2.0,55,0.00,,---,0.00,0.00,VWS V14.01,2013-02-08 00:58:00,
2013-02-07 20:00:00,25.0,13.5,30.47,WNW,292,0.0,4.0,61,0.00,,---,0.00,0.00,VWS V14.01,2013-02-08 01:00:00,
2013-02-07 20:03:00,26.1,12.2,30.46,North,350,0.0,0.0,55,0.00,,---,0.00,0.00,VWS V14.01,2013-02-08 01:03:00,
2013-02-07 20:08:00,26.0,13.3,30.46,North,350,0.0,0.0,58,0.00,,---,0.00,0.00,VWS V14.01,2013-02-08 01:08:00,
2013-02-07 20:13:00,25.8,13.5,30.47,North,350,0.0,0.0,59,0.00,,---,0.00,0.00,VWS V14.01,2013-02-08 01:13:00,
2013-02-07 20:18:00,25.6,13.7,30.46,North,350,0.0,0.0,60,0.00,,---,0.00,0.00,VWS V14.01,2013-02-08 01:18:00,
2013-02-07 20:23:00,25.4,14.2,30.46,North,350,0.0,0.0,62,0.00,,---,0.00,0.00,VWS V14.01,2013-02-08 01:23:00,
2013-02-07 20:28:00,25.2,15.1,30.46,North,350,0.0,0.0,65,0.00,,---,0.00,0.00,VWS V14.01,2013-02-08 01:28:00,
2013-02-07 20:30:00,25.3,12.2,30.46,NW,320,0.0,2.0,57,0.00,,---,0.00,0.00,VWS V14.01,2013-02-08 01:30:00,
2013-02-07 20:33:00,25.1,14.3,30.46,North,350,0.0,0.0,63,0.00,,---,0.00,0.00,VWS V14.01,2013-02-08 01:33:00,
2013-02-07 20:38:00,24.9,14.1,30.47,North,350,0.0,0.0,63,0.00,,---,0.00,0.00,VWS V14.01,2013-02-08 01:38:00,
2013-02-07 20:43:00,24.9,14.5,30.47,North,350,0.0,0.0,64,0.00,,---,0.00,0.00,VWS V14.01,2013-02-08 01:43:00,
2013-02-07 20:48:00,24.9,14.5,30.47,North,350,0.0,0.0,64,0.00,,---,0.00,0.00,VWS V14.01,2013-02-08 01:48:00,
2013-02-07 20:53:00,24.8,14.4,30.47,North,350,0.0,0.0,64,0.00,,---,0.00,0.00,VWS V14.01,2013-02-08 01:53:00,
2013-02-07 20:58:00,25.0,13.5,30.47,WNW,292,0.0,4.0,61,0.00,,---,0.00,0.00,VWS V14.01,2013-02-08 01:58:00,
2013-02-07 21:00:00,25.2,11.7,30.45,SSE,155,0.0,3.0,56,0.00,,---,0.00,0.00,VWS V14.01,2013-02-08 02:00:00,
2013-02-07 21:03:00,25.1,12.4,30.46,WNW,292,0.0,0.0,58,0.00,,---,0.00,0.00,VWS V14.01,2013-02-08 02:03:00,
2013-02-07 21:08:00,25.2,12.9,30.46,WNW,292,0.0,0.0,59,0.00,,---,0.00,0.00,VWS V14.01,2013-02-08 02:08:00,
2013-02-07 21:13:00,25.3,13.0,30.45,WNW,292,0.0,0.0,59,0.00,,---,0.00,0.00,VWS V14.01,2013-02-08 02:13:00,
2013-02-07 21:18:00,25.4,12.3,30.46,WNW,292,0.0,0.0,57,0.00,,---,0.00,0.00,VWS V14.01,2013-02-08 02:18:00,
2013-02-07 21:23:00,25.4,11.9,30.46,WNW,292,0.0,0.0,56,0.00,,---,0.00,0.00,VWS V14.01,2013-02-08 02:23:00,
2013-02-07 21:28:00,25.3,13.0,30.46,NW,320,0.0,2.0,59,0.00,,---,0.00,0.00,VWS V14.01,2013-02-08 02:28:00,
2013-02-07 21:30:00,26.0,10.8,30.45,SW,232,0.0,3.0,52,0.00,,---,0.00,0.00,VWS V14.01,2013-02-08 02:30:00,
2013-02-07 21:33:00,25.3,12.2,30.46,NW,320,0.0,0.0,57,0.00,,---,0.00,0.00,VWS V14.01,2013-02-08 02:33:00,
2013-02-07 21:38:00,25.2,11.3,30.47,NW,320,0.0,0.0,55,0.00,,---,0.00,0.00,VWS V14.01,2013-02-08 02:38:00,
2013-02-07 21:43:00,25.4,11.5,30.46,SSE,159,0.0,3.0,55,0.00,,---,0.00,0.00,VWS V14.01,2013-02-08 02:43:00,
2013-02-07 21:48:00,25.2,12.1,30.46,SSE,155,0.0,3.0,57,0.00,,---,0.00,0.00,VWS V14.01,2013-02-08 02:48:00,
2013-02-07 21:53:00,25.2,12.1,30.45,SSE,155,0.0,3.0,57,0.00,,---,0.00,0.00,VWS V14.01,2013-02-08 02:53:00,
2013-02-07 21:58:00,25.2,11.7,30.45,SSE,155,0.0,3.0,56,0.00,,---,0.00,0.00,VWS V14.01,2013-02-08 02:58:00,
2013-02-07 22:00:00,26.8,11.6,30.43,ENE,73,0.0,4.0,52,0.00,,---,0.00,0.00,VWS V14.01,2013-02-08 03:00:00,
2013-02-07 22:03:00,25.3,11.8,30.45,SSE,155,0.0,0.0,56,0.00,,---,0.00,0.00,VWS V14.01,2013-02-08 03:03:00,
2013-02-07 22:08:00,25.5,13.6,30.45,SSE,155,0.0,0.0,60,0.00,,---,0.00,0.00,VWS V14.01,2013-02-08 03:08:00,
2013-02-07 22:13:00,25.5,12.4,30.45,SSE,155,0.0,0.0,57,0.00,,---,0.00,0.00,VWS V14.01,2013-02-08 03:13:00,
2013-02-07 22:18:00,25.6,11.7,30.45,ESE,120,0.0,3.0,55,0.00,,---,0.00,0.00,VWS V14.01,2013-02-08 03:18:00,
2013-02-07 22:23:00,25.9,11.1,30.45,ESE,120,0.0,3.0,53,0.00,,---,0.00,0.00,VWS V14.01,2013-02-08 03:23:00,
2013-02-07 22:28:00,26.0,11.2,30.44,ESE,120,0.0,3.0,53,0.00,,---,0.00,0.00,VWS V14.01,2013-02-08 03:28:00,
2013-02-07 22:30:00,27.2,14.0,30.43,WSW,252,3.0,10.0,57,0.00,,---,0.00,0.00,VWS V14.01,2013-02-08 03:30:00,
2013-02-07 22:33:00,26.1,10.9,30.45,SSE,149,0.0,3.0,52,0.00,,---,0.00,0.00,VWS V14.01,2013-02-08 03:33:00,
2013-02-07 22:38:00,26.2,11.0,30.44,SSE,149,0.0,3.0,52,0.00,,---,0.00,0.00,VWS V14.01,2013-02-08 03:38:00,
2013-02-07 22:43:00,26.3,11.1,30.44,East,96,1.0,3.0,52,0.00,,---,0.00,0.00,VWS V14.01,2013-02-08 03:43:00,
2013-02-07 22:48:00,26.5,11.3,30.44,SE,146,0.0,4.0,52,0.00,,---,0.00,0.00,VWS V14.01,2013-02-08 03:48:00,
2013-02-07 22:53:00,26.6,10.9,30.44,SE,146,0.0,4.0,51,0.00,,---,0.00,0.00,VWS V14.01,2013-02-08 03:53:00,
2013-02-07 22:58:00,26.7,11.4,30.43,ENE,73,0.0,4.0,52,0.00,,---,0.00,0.00,VWS V14.01,2013-02-08 03:58:00,
2013-02-07 23:00:00,27.5,15.1,30.42,SSE,165,0.0,8.0,59,0.00,,---,0.00,0.00,VWS V14.01,2013-02-08 04:00:00,
2013-02-07 23:03:00,26.8,11.6,30.43,SE,146,1.0,5.0,52,0.00,,---,0.00,0.00,VWS V14.01,2013-02-08 04:03:00,
2013-02-07 23:08:00,26.9,12.5,30.43,East,88,3.0,6.0,54,0.00,,---,0.00,0.00,VWS V14.01,2013-02-08 04:08:00,
2013-02-07 23:13:00,27.0,12.6,30.43,SSE,148,3.0,10.0,54,0.00,,---,0.00,0.00,VWS V14.01,2013-02-08 04:13:00,
2013-02-07 23:18:00,27.1,13.1,30.43,SE,146,1.0,10.0,55,0.00,,---,0.00,0.00,VWS V14.01,2013-02-08 04:18:00,
2013-02-07 23:23:00,27.2,13.6,30.43,East,92,3.0,10.0,56,0.00,,---,0.00,0.00,VWS V14.01,2013-02-08 04:23:00,
2013-02-07 23:28:00,27.3,14.1,30.43,West,259,0.0,10.0,57,0.00,,---,0.00,0.00,VWS V14.01,2013-02-08 04:28:00,
2013-02-07 23:30:00,27.3,15.3,30.39,ENE,64,12.0,12.0,60,0.00,,---,0.00,0.00,VWS V14.01,2013-02-08 04:30:00,
2013-02-07 23:33:00,27.3,14.5,30.42,West,275,0.0,5.0,58,0.00,,---,0.00,0.00,VWS V14.01,2013-02-08 04:33:00,
2013-02-07 23:38:00,27.3,14.5,30.43,West,271,0.0,5.0,58,0.00,,---,0.00,0.00,VWS V14.01,2013-02-08 04:38:00,
2013-02-07 23:43:00,27.3,14.9,30.42,NW,318,1.0,5.0,59,0.00,,---,0.00,0.00,VWS V14.01,2013-02-08 04:43:00,
2013-02-07 23:48:00,27.4,15.0,30.42,SE,136,2.0,8.0,59,0.00,,---,0.00,0.00,VWS V14.01,2013-02-08 04:48:00,
2013-02-07 23:53:00,27.5,15.1,30.42,ESE,104,7.0,8.0,59,0.00,,---,0.00,0.00,VWS V14.01,2013-02-08 04:53:00,
2013-02-07 23:58:00,27.5,15.1,30.42,SW,217,0.0,8.0,59,0.00,,---,0.00,0.00,VWS V14.01,2013-02-08 04:58:00,